FREGAT R/B, 37345

Orbit data source: Space-Track

FREGAT R/B, 37345 is space debris in GEO originally from a launch on Thu, 20 Jan 2011 UTC launched from the Tyuratam Missile And Space Complex (TTMTR). Debris objects in space refer to the collection of defunct objects orbiting the Earth. Examples of debris include non-operational satellites, rocket bodies, and fragments generated from explosions, collisions, or faulty payload assembly.

Loading next visibility...
Identifier
37345, 2011-001B
Orbit
GEO
Country
Flag of CISCIS
Related business
Manufacturer
Lavochkin
Mission
Spacecraft
Bus & Motor
FREGAT, Unknown motor
Mass
1,000 kg wet, 1,000 kg dry
Launch date (UTC)
2011-01-20 (15 years ago)
Launch vehicle
Unknown
Launch site
Tyuratam Missile And Space Complex (TTMTR)
Object type
Payload
Rocket body
Debris
Shape & HBR
Cyl, 1.6 m
Radar Cross Section
8.683 m², Large (>1 m²)

Expand to show TLE details & history
Last TLE update: 3 days ago

TLE from 3 days ago
0 FREGAT R/B
1 37345U 11001B   26170.92414350 -.00000032  00000-0  00000-0 0  9995
2 37345  10.2460  42.3647 0152042  71.4500 285.8308  1.02798137 60428
Epoch: 2026-06-19T22:10Z
TLE epoch observation values (Epoch: 2026-06-19T22:10:45.998Z)
Latitude
-0.77901°
Longitude
157.20171°
Altitude
34,926.785 km
Speed
3.113 km/s
True Right ascension
02h 32m 09s
True Declination
0° 46' 42"
Sunlit
Object was in daylight at epoch
Visualization orbit readout
Latitude
Unknown
Longitude
Unknown
Altitude
Unknown
Speed
Unknown
Apparent Right ascension
Unknown
Apparent Declination
Unknown
Sunlit
N/A
Visualization observer readout
Local Sidereal Time
02:17:34
Azimuth
Unknown
Elevation
Unknown
Doppler factor
Unknown
Orbital elements
Apogee altitude
35,724.498 km
Perigee altitude
34,463.399 km
Semi-major axis
41,472.086 km
Eccentricity
0.0152
Inclination
10.246°
RAAN
42.3647°
Arg. of periapsis
71.45°
True anomaly
284.14612°
Mean anomaly
285.8308°
Eccentric anomaly
284.9893°
Mean motion
0.25699 °/min
Orbital period
1,400.85 mins
BSTAR
0
Loading maneuver chart data...
Computing Atmospheric mass density...
Loading historical data...
Loading historical data...
Loading historical data...
Loading historical data...
Loading historical data...
Loading historical data...
Loading historical data...

Documentation

Showing up to 5 results
|